Flag for United Kingdom Weather past 2 weeks in Dundee, Scotland, United Kingdom

Now
48 °F

Light rain. Mostly cloudy.


Feels Like: 45 °F
Forecast: 48 / 59 °F
Wind: 8 mph from West

Location: Leuchars

Current Time: Aug 21, 2014 at 3:32:58 AM

Latest Report: Aug 21, 2014 at 2:50 AM


Visibility: N/A

Pressure: 29.83 "Hg

Humidity: 94%

Dew point: 46 °F

Location of DundeeLocation

Historic Weather in Dundee — Graph

°F

Dundee temperature yesterday

Maximum temperature yesterday: 61 °F (at 12:50 PM)
Minimum temperature yesterday: 43 °F (at 5:50 AM)
Average temperature yesterday: 53 °F

Past Weeks' High & Low Weather Summary

 TemperatureHumidityPressure
High70 °F (Aug 7, 12:50 PM)100% (Aug 6, 1:50 AM)30.04 "Hg (Aug 6, 1:50 AM)
Low43 °F (Aug 20, 5:50 AM)39% (Aug 18, 3:50 PM)29.09 "Hg (Aug 11, 1:50 AM)
Average57 °F77%29.66 "Hg
* Reported Aug 6 1:50 AM — Aug 21 1:50 AM, Dundee, Weather by CustomWeather, © 2014

Note: Actual official high and low records may vary slightly from our data, if they occured in-between our weather recording intervals... More about our weather records

Advertising

Dundee weather history for previous 24 hours

 ConditionsComfort  
Time TempWeatherWind HumidityBarometerVisibility
1:50 AM
Aug 21
48 °FLight rain. Mostly cloudy.7 mph94%29.86 "HgN/A
12:50 AM50 °FLight rain. Overcast.6 mph88%29.89 "HgN/A
11:50 PM
Aug 20
50 °FMostly cloudy.5 mph88%29.89 "HgN/A
10:50 PM50 °FPartly cloudy.7 mph88%29.89 "HgN/A
9:50 PM52 °FLight rain. Mostly cloudy.7 mph82%29.92 "HgN/A
8:50 PM52 °FMostly cloudy.9 mph82%29.92 "HgN/A
7:50 PM54 °FLight rain. Mostly cloudy.10 mph77%29.92 "HgN/A
6:50 PM54 °FLight rain. Partly sunny.12 mph82%29.92 "HgN/A
5:50 PM59 °FPartly sunny.10 mph48%29.92 "HgN/A
4:50 PM61 °FPartly sunny.9 mph45%29.92 "HgN/A
3:50 PM61 °FPartly sunny.10 mph42%29.92 "HgN/A
2:50 PM61 °FScattered clouds.9 mph42%29.95 "HgN/A
1:50 PM59 °FPartly sunny.10 mph45%29.95 "HgN/A
12:50 PM61 °FPartly sunny.13 mph42%29.95 "HgN/A
11:50 AM59 °FPartly sunny.12 mph48%29.95 "HgN/A
10:50 AM55 °FScattered clouds.10 mph59%29.98 "HgN/A
9:50 AM54 °FPartly sunny.10 mph63%29.98 "HgN/A
8:50 AM52 °FPartly sunny.9 mph72%29.98 "HgN/A
7:50 AM50 °FPartly sunny.12 mph71%29.98 "HgN/A
6:50 AM46 °FPartly sunny.7 mph82%29.98 "HgN/A
5:50 AM43 °FPassing clouds.8 mph87%29.95 "HgN/A
4:50 AM46 °FPassing clouds.8 mph82%29.95 "HgN/A
3:50 AM45 °FPassing clouds.9 mph87%29.98 "HgN/A
Weather by CustomWeather, © 2014

See weather overviewHow to use our weather pages